STARLINK-2726, 48662

Orbit data source: Space-Track

STARLINK-2726, 48662 is a payload satellite owned by SpaceX/Seattle (US) in LEO that was launched on Wed, 26 May 2021 UTC via an FALCON 9 launch vehicle from the Air Force Eastern Test Range (AFETR). Payload-class satellites include a variety of spacecraft equipped with specific instruments for various scientific and technological missions. These include communications satellites like Starlink; space stations such as the ISS; scientific satellites like the Hubble; Earth observation satellites from companies like Planet Labs, Umbra, and HawkEye 360; GPS; miniature CubeSats for education and research; and military/defense satellites.

Loading next visibility...
Identifier
48662, 2021-044AA
Orbit
LEO
Country
Flag of USUS
Related business
Manufacturer
SpaceX/Seattle
Mission
Partially operational Commercial Communications
Bus & Motor
STARLINK, Unknown motor
Mass
260 kg wet, ~248 kg dry
Launch date (UTC)
2021-05-26 (5 years ago)
Launch vehicle
FALCON 9
Launch site
Air Force Eastern Test Range (AFETR)
Object type
Payload
Rocket body
Debris
Shape & HBR
Box + 1 Pan, 10.1 m
Radar Cross Section
13.562 m², Large (>1 m²)

Expand to show TLE details & history
Last TLE update: 3 days ago

TLE from 3 days ago
0 STARLINK-2726
1 48662U 21044AA  26170.91495288  .00000051  00000-0  14105-4 0  9990
2 48662  53.1572 359.2164 0001350  92.8203 267.2952 15.29350584279467
Epoch: 2026-06-19T21:57Z
TLE epoch observation values (Epoch: 2026-06-19T21:57:31.928Z)
Latitude
-0.00003°
Longitude
121.69626°
Altitude
478.695 km
Speed
7.627 km/s
True Right ascension
23h 56m 51s
True Declination
0° 00' 00"
Sunlit
Object was in daylight at epoch
Visualization orbit readout
Latitude
Unknown
Longitude
Unknown
Altitude
Unknown
Speed
Unknown
Apparent Right ascension
Unknown
Apparent Declination
Unknown
Sunlit
N/A
Visualization observer readout
Local Sidereal Time
21:44:04
Azimuth
Unknown
Elevation
Unknown
Doppler factor
Unknown
Orbital elements
Apogee altitude
478.935 km
Perigee altitude
477.084 km
Semi-major axis
6,856.146 km
Eccentricity
0.00014
Inclination
53.1572°
RAAN
359.2164°
Arg. of periapsis
92.8203°
True anomaly
267.27975°
Mean anomaly
267.2952°
Eccentric anomaly
267.28747°
Mean motion
3.82317 °/min
Orbital period
94.16 mins
BSTAR
0.000014105
Loading maneuver chart data...
Computing Atmospheric mass density...

Documentation

Showing up to 5 results
|